map of ILQ home
ILQ - Airport
Location
City:  Ilo, Moquegua, Perú
Name:Ilo Airport
ICAO:SPLO
IATA:ILQ

Details
Type:Airport (Aerodrome, Airfield)
Use:Public/Civil
Latitude:17°41'42"S (-17.695027)
Longitude:71°20'38"W (-71.343930)
Elevation:72 ft (22 m)
Variation:5.12°W (WMM2015v2 magnetic declination)
-0.20° annual change
Runways:1
Longest:8202 × 148 ft (2500 × 45 m), paved

Time
Time Zone:UTC-5
Local Time:

Weather
METAR:SPLO 041400Z 13012KT 9999 SCT060 24/19 Q1011 RMK PP000
TAF:SPLO 041115Z 0412/0512 17008KT CAVOK TX29/0419Z TN22/0511Z

Related Locations
Nearby:
Farthest:SYX: 12373 mi / 19913 km
Sanya [Fenghuang Intl (Phoenix Intl)], 46, CN

Find:

   beyond  
but within

Other Information
Maps:
NOTAMs:
Links:
Sources:

  
  • flag of Perú
  • flag of Moquegua
  

Sectional Chart

Flight Planning
at skyvector.com

Satellite Image

Google Maps Satellite view

 

Copyright © 2004-2019 Karl L. Swartz. All rights reserved.
The Great Circle Mapper name and logo are trademarks of the Great Circle Mapper.
All other trademarks mentioned herein belong to their respective owners.
Please see credits for attibutions and further copyright information.

  Follow gcmap on Facebook Follow gcmap on Twitter GCmap on LinkedIn

hCard Microformat

Geo Microformat